Wind_Speed
12 12 8 4 2 1 1 2 2 6 8 10 20 7 8 5 0 3 26 28 32 29 26 23 21 19 16 14 13 12 12 12 12 12 11 12 11 12 10 10 10 11 9 6 7 8 8 10 10
14 12 5 2 1 2 3 6 5 2 11 19 10 9 5 4 4 17 30 33 30 29 24 23 20 18 15 14 13 12 12 12 12 11 12 13 13 11 11 11 12 10 8 7 11 11 11 12 13
12 8 2 1 1 2 3 5 3 3 16 16 6 6 3 4 7 32 26 35 31 29 26 23 20 17 15 14 13 13 13 12 12 12 12 12 12 13 12 12 11 10 11 9 12 13 14 15 15
9 4 4 2 3 3 2 4 5 14 12 6 10 7 5 5 20 24 38 34 32 29 25 22 19 16 15 15 13 12 11 11 10 11 12 13 13 12 12 12 11 11 11 11 12 12 12 12 12
8 2 2 2 0 1 1 1 4 14 8 8 4 5 5 9 22 33 38 33 30 28 24 22 19 17 16 15 13 14 13 13 12 13 12 12 12 13 13 11 10 10 10 10 12 13 14 13 14
4 1 2 1 2 2 2 5 9 9 9 9 6 9 5 12 24 34 35 33 31 27 25 22 18 17 15 14 14 14 13 13 12 13 13 13 13 14 13 12 10 9 9 9 9 11 12 12 12
2 2 2 1 1 3 4 10 8 11 10 8 12 6 8 17 29 32 33 32 31 26 25 23 19 17 14 13 13 14 12 12 13 13 14 14 14 14 13 13 12 11 11 9 9 11 10 10 9
3 2 2 3 1 2 6 6 9 10 6 15 12 7 11 25 31 29 29 28 28 26 25 23 19 17 14 14 13 13 13 14 13 14 15 15 15 14 13 12 10 10 10 10 9 11 11 10 10
3 2 4 2 2 2 6 4 7 7 18 5 11 8 23 32 30 29 29 27 28 26 26 23 20 18 16 14 13 13 14 14 14 15 14 14 14 13 12 9 8 10 10 11 10 11 11 9 10
6 3 5 2 2 1 7 8 12 8 16 6 8 15 34 35 31 31 31 31 28 29 28 23 20 18 17 15 15 14 15 14 14 14 14 13 11 10 9 8 9 9 9 9 10 10 10 11 9
7 4 4 3 4 4 6 6 8 12 10 12 24 29 37 36 32 31 29 29 29 31 27 25 22 19 17 15 15 15 14 14 13 13 12 11 9 7 6 6 7 8 7 8 9 9 8 8 8
6 12 8 2 4 6 6 7 8 16 1 12 25 33 42 37 35 32 31 30 28 31 28 26 23 20 17 16 15 15 15 14 13 12 10 9 8 7 7 7 7 6 6 7 8 8 6 5 5
13 7 6 10 12 8 5 10 4 13 3 15 26 35 39 37 33 30 29 29 31 31 30 27 24 21 19 16 16 17 16 13 12 11 9 9 6 4 4 4 4 5 6 8 7 5 5 5 5
4 19 12 9 10 9 8 7 9 5 13 21 28 35 38 36 35 30 29 29 32 33 31 28 25 22 19 18 18 18 15 13 12 10 7 7 6 4 4 4 5 5 6 5 5 6 4 4 5
10 2 5 11 8 5 7 6 8 13 17 24 27 32 36 34 31 31 30 30 33 32 30 29 26 23 21 19 21 19 16 13 12 11 8 7 7 6 5 4 4 4 5 5 4 7 6 6 5
6 6 4 3 12 5 11 5 6 17 22 24 27 31 33 34 33 29 28 29 33 31 31 29 27 25 22 21 21 19 18 15 12 10 7 6 5 5 4 5 5 6 6 4 5 8 6 5 5
5 9 15 5 11 6 11 4 11 17 20 23 26 29 32 32 31 30 29 30 34 33 31 30 28 26 24 22 23 20 18 15 12 9 7 5 4 5 4 5 5 7 7 8 9 9 8 5 2
11 13 7 14 9 12 13 9 11 19 21 23 26 28 30 33 35 31 29 29 33 33 32 30 29 27 25 24 24 22 19 16 13 12 8 6 5 4 4 4 2 4 6 7 7 6 5 4 3
7 5 12 7 8 13 16 15 13 19 19 23 26 29 31 35 31 30 29 30 32 34 34 33 31 29 28 28 27 25 22 17 14 12 11 7 6 4 4 3 3 4 6 5 6 4 2 2 1
12 6 8 9 5 9 12 17 12 19 26 29 29 29 31 29 32 32 31 31 34 37 36 35 34 31 31 29 28 27 23 19 14 13 12 10 9 6 4 3 1 3 4 4 4 4 5 2 2
18 18 9 6 4 9 5 11 12 16 17 22 25 26 27 31 34 34 34 34 32 39 39 39 36 34 32 33 29 27 24 21 17 15 13 11 10 8 6 5 3 4 6 4 3 3 6 5 2
19 15 14 11 5 9 10 11 10 15 19 19 27 29 31 32 32 33 35 34 35 40 42 38 37 35 34 33 34 30 27 25 23 18 15 13 10 8 8 7 5 4 5 4 3 2 4 5 3
13 8 16 18 13 11 12 7 14 14 16 21 27 32 33 33 35 36 38 39 38 37 42 42 40 35 35 36 34 30 29 24 21 20 17 18 16 14 10 9 8 6 4 5 4 5 4 4 6
11 5 11 12 13 17 19 12 14 13 18 18 23 31 34 35 36 35 36 34 35 35 40 43 42 40 37 37 36 34 31 27 24 22 20 22 22 20 17 14 12 10 7 6 6 6 6 4 6
16 13 5 8 11 17 16 15 17 8 17 18 19 30 35 37 38 38 37 36 36 38 39 46 45 44 41 40 40 38 34 32 29 26 22 22 24 25 22 18 17 13 11 8 6 8 7 7 7
21 18 8 12 12 15 16 12 15 23 17 12 18 24 29 35 38 40 41 40 41 44 47 49 48 46 45 42 41 39 36 34 31 31 28 22 21 21 22 21 19 17 14 11 10 9 9 10 10
11 21 19 9 2 9 14 17 16 7 17 21 21 18 25 32 37 41 41 42 43 45 47 48 50 47 46 46 42 40 38 36 33 31 29 28 22 19 18 20 18 17 17 15 14 13 12 12 12
9 7 16 13 19 13 8 17 13 20 20 14 11 20 24 28 32 35 38 42 45 47 45 44 45 46 46 46 45 43 41 38 35 33 31 31 26 21 18 20 20 18 19 18 17 17 15 15 13
8 10 8 9 17 15 10 9 5 17 15 20 24 27 24 25 29 35 39 43 47 45 46 46 45 43 45 44 43 42 41 39 38 36 32 31 29 25 22 21 22 21 21 20 19 17 16 17 16
6 5 10 11 13 15 16 17 2 8 7 6 11 18 23 25 27 33 37 36 38 44 45 51 49 47 45 43 43 43 41 39 38 37 33 30 30 28 25 24 24 25 24 24 24 21 19 18 18
Wind_Direction
157 152 147 177 212 245 237 98 272 160 145 144 149 152 152 65 337 95 148 155 155 148 146 148 145 139 133 131 135 132 130 128 129 136 141 142 140 137 134 124 120 114 108 88 83 94 109 116 118
161 152 171 310 247 259 112 153 76 27 144 137 113 114 123 94 86 139 148 155 156 150 146 147 145 141 136 137 132 128 125 124 128 131 137 137 135 129 127 121 118 120 113 99 93 98 110 114 114
154 155 245 244 242 241 122 150 129 45 143 144 107 84 93 117 127 147 155 154 157 153 148 148 146 141 137 131 127 127 128 126 121 120 124 127 125 124 119 115 110 109 109 104 99 94 105 111 112
155 190 241 237 212 197 127 115 123 129 135 141 130 93 86 147 146 154 154 155 156 151 148 148 147 144 138 134 134 137 133 133 127 124 120 124 122 122 121 117 115 110 110 105 105 97 110 103 111
169 243 230 229 246 160 207 61 129 152 125 140 147 116 103 145 159 156 155 156 156 152 149 148 149 149 143 134 136 132 125 124 125 124 125 123 122 122 122 116 114 110 104 105 114 104 106 110 112
173 264 242 140 158 161 147 179 141 145 147 151 119 120 125 157 161 155 157 159 162 155 154 150 151 147 141 137 135 134 133 128 124 125 122 119 119 119 119 114 106 103 105 110 114 116 111 109 107
252 212 278 222 161 165 172 164 182 168 152 173 155 116 137 152 156 156 158 162 165 162 161 157 155 148 143 137 136 137 136 133 129 125 123 118 117 119 116 114 106 99 95 100 111 118 109 98 107
257 242 246 240 225 90 130 149 179 169 157 142 156 159 166 164 157 155 158 162 166 168 168 164 161 152 151 143 141 141 142 144 136 127 124 123 119 117 113 108 103 96 92 89 101 115 114 102 107
221 226 208 220 161 89 152 147 137 130 140 139 167 153 162 159 157 156 159 163 169 171 172 170 166 157 157 150 148 145 145 146 140 133 125 120 120 115 114 104 96 94 92 92 96 111 114 101 99
210 222 207 199 161 26 183 180 148 150 152 127 138 134 156 157 160 162 165 167 172 174 175 174 169 163 159 157 154 151 148 149 144 137 127 123 121 116 110 107 106 99 99 99 104 115 111 96 91
195 231 216 154 183 7 156 172 169 155 187 190 166 156 160 163 166 167 169 171 174 176 176 175 172 166 164 161 156 155 152 151 147 143 136 129 120 112 108 106 99 99 104 112 112 119 117 108 95
216 238 246 254 161 347 192 169 188 187 199 189 174 167 163 170 171 172 173 174 177 179 178 175 174 169 167 163 161 159 155 148 144 144 143 133 125 117 110 117 106 94 118 142 137 128 122 110 91
222 240 243 255 283 289 244 208 218 204 159 153 160 164 170 172 175 176 177 178 180 182 180 177 176 172 170 166 166 164 158 151 149 147 143 140 137 134 129 111 122 107 120 138 153 151 127 116 106
222 231 252 290 289 261 272 237 194 146 145 149 161 169 172 177 178 178 183 183 185 183 182 179 178 175 174 170 167 164 165 166 160 158 151 144 137 120 129 130 122 134 123 146 157 169 134 120 105
224 306 242 248 252 241 176 200 209 157 157 156 167 171 174 179 183 188 187 186 187 185 184 183 180 178 176 174 172 172 170 163 158 156 141 124 132 117 126 138 123 123 142 145 167 158 144 120 92
207 237 232 197 208 226 190 205 154 161 160 163 169 175 178 183 188 191 193 191 190 189 188 186 184 182 178 178 179 180 179 173 163 164 160 135 126 115 114 134 126 146 134 138 150 163 147 126 116
192 212 217 252 199 189 195 204 162 168 170 168 174 180 184 187 193 196 195 195 195 195 192 191 190 187 182 181 182 181 182 187 193 196 185 167 135 143 125 140 158 154 137 128 119 130 139 133 119
201 210 210 215 184 207 206 220 166 176 180 178 180 184 190 193 196 196 197 197 200 200 198 196 194 191 187 186 186 189 194 196 204 203 202 182 159 143 144 142 126 136 136 135 133 126 143 152 137
218 224 222 212 210 204 219 226 192 182 186 186 188 190 194 198 197 199 199 200 203 204 204 202 198 193 191 191 193 197 201 201 206 208 199 207 185 177 151 165 96 143 146 147 164 164 146 121 36
227 227 221 243 234 220 228 234 206 184 198 195 190 196 199 196 197 200 202 202 207 207 206 206 203 199 196 195 197 203 205 206 205 208 213 212 202 205 191 209 190 170 187 172 167 184 198 186 127
228 230 218 247 284 240 224 241 201 204 203 200 205 204 203 202 200 201 202 204 205 208 207 206 207 205 203 203 203 206 212 216 216 210 215 218 223 221 219 229 240 221 220 234 221 189 205 201 218
227 222 238 250 273 234 214 241 205 196 202 203 203 203 205 206 207 206 206 206 207 211 210 209 208 210 209 208 212 215 216 220 219 218 221 232 241 234 235 237 242 246 227 246 214 223 190 199 199
235 225 226 237 249 270 242 246 234 195 206 212 209 209 209 208 206 207 207 209 209 210 212 212 210 210 210 212 213 214 217 223 227 228 231 241 250 250 250 243 239 247 240 248 232 233 233 233 220
208 233 224 228 236 244 237 237 241 207 209 218 214 213 212 210 209 210 211 209 209 210 213 214 212 212 214 215 216 218 222 227 232 234 235 242 248 251 251 252 247 244 252 242 236 250 249 252 233
207 208 197 209 215 235 217 230 233 226 213 219 207 212 212 212 210 208 208 207 208 208 213 218 217 217 216 218 220 223 227 232 236 240 242 245 249 247 250 252 250 248 241 243 251 255 259 264 260
202 205 206 214 218 228 214 233 226 225 229 232 229 220 213 212 213 211 208 208 208 212 217 223 222 219 219 219 221 224 228 233 237 240 243 247 253 254 253 253 253 241 236 235 247 258 261 264 263
188 217 224 266 272 241 223 239 255 226 236 232 229 225 218 213 212 212 209 209 210 215 217 223 226 222 221 222 223 225 227 231 235 237 239 244 248 252 250 244 244 234 231 235 245 253 260 265 263
229 203 202 226 237 234 210 233 230 204 227 221 211 219 224 218 212 213 212 211 211 217 222 223 225 224 222 223 225 229 230 231 234 239 240 242 244 247 246 242 237 235 230 233 244 254 258 259 262
191 210 218 242 228 228 236 234 214 222 223 227 228 224 225 214 210 209 211 211 212 214 215 220 222 222 221 219 220 224 228 232 236 238 239 242 243 243 242 242 238 237 234 232 242 250 258 258 257
292 278 249 228 206 236 250 236 245 233 241 225 248 245 242 232 219 210 210 208 207 207 208 217 220 220 219 217 223 226 228 228 230 233 234 237 239 240 242 240 238 239 236 233 235 243 250 255 257
Height
1517 1519 1522 1523 1527 1521 1517 1518 1515 1512 1513 1516 1519 1522 1526 1529 1529 1536 1538 1544 1548 1551 1555 1558 1560 1563 1564 1566 1568 1569 1570 1571 1572 1573 1573 1575 1576 1576 1578 1578 1579 1580 1580 1580 1580 1579 1578 1579 1580
1518 1521 1523 1520 1524 1523 1516 1515 1514 1511 1512 1517 1522 1524 1526 1531 1532 1533 1539 1545 1550 1553 1556 1559 1562 1564 1566 1568 1569 1571 1572 1573 1574 1574 1576 1576 1577 1578 1580 1580 1580 1581 1582 1582 1582 1581 1581 1581 1582
1518 1522 1523 1516 1519 1519 1517 1511 1513 1515 1515 1517 1522 1526 1529 1531 1532 1535 1540 1545 1551 1554 1558 1561 1564 1565 1568 1569 1570 1572 1574 1574 1575 1576 1577 1579 1580 1580 1582 1582 1583 1583 1584 1584 1584 1584 1583 1584 1584
1519 1522 1523 1520 1515 1511 1511 1509 1511 1515 1518 1519 1521 1527 1530 1532 1533 1537 1541 1547 1552 1556 1559 1562 1565 1567 1569 1571 1572 1574 1575 1576 1577 1579 1580 1581 1582 1583 1584 1584 1585 1585 1586 1586 1586 1586 1586 1586 1587
1518 1519 1516 1516 1516 1509 1508 1509 1508 1512 1517 1520 1522 1527 1531 1532 1534 1537 1542 1549 1554 1557 1560 1563 1567 1569 1570 1572 1574 1575 1577 1578 1579 1580 1582 1583 1583 1584 1585 1586 1587 1588 1587 1589 1588 1589 1589 1589 1590
1518 1518 1515 1513 1512 1507 1507 1509 1510 1512 1518 1520 1522 1525 1532 1533 1535 1539 1544 1550 1555 1558 1562 1565 1568 1570 1572 1574 1575 1577 1578 1580 1581 1582 1583 1585 1586 1586 1587 1588 1589 1589 1590 1590 1591 1592 1592 1592 1593
1515 1515 1511 1508 1507 1506 1506 1509 1510 1511 1516 1519 1521 1525 1532 1534 1538 1541 1546 1551 1555 1560 1563 1566 1569 1571 1574 1575 1577 1579 1580 1582 1583 1584 1585 1587 1588 1589 1589 1590 1591 1591 1592 1593 1593 1594 1594 1595 1596
1515 1513 1510 1506 1509 1505 1505 1507 1508 1511 1515 1518 1520 1523 1530 1533 1539 1543 1548 1552 1556 1560 1564 1566 1569 1572 1575 1577 1579 1580 1582 1583 1584 1586 1587 1589 1590 1591 1592 1593 1593 1594 1594 1595 1595 1596 1597 1597 1597
1514 1515 1509 1503 1503 1501 1504 1505 1509 1511 1513 1518 1520 1521 1525 1530 1538 1544 1548 1552 1556 1560 1564 1567 1570 1573 1575 1578 1579 1581 1583 1584 1586 1588 1589 1591 1592 1593 1594 1595 1596 1596 1597 1597 1598 1598 1598 1599 1600
1511 1513 1503 1500 1499 1500 1502 1504 1507 1511 1514 1518 1521 1522 1526 1532 1538 1542 1546 1549 1555 1558 1563 1566 1570 1573 1576 1578 1580 1582 1584 1586 1588 1590 1591 1592 1594 1595 1596 1597 1598 1599 1598 1599 1600 1599 1600 1601 1602
1508 1508 1502 1500 1501 1501 1501 1503 1506 1508 1511 1512 1515 1520 1527 1531 1537 1542 1547 1551 1554 1558 1563 1566 1570 1573 1576 1579 1581 1583 1585 1587 1589 1591 1592 1594 1595 1596 1598 1599 1599 1599 1600 1601 1601 1601 1601 1602 1603
1506 1503 1502 1500 1500 1502 1502 1503 1504 1505 1505 1507 1512 1516 1522 1531 1535 1539 1545 1549 1554 1557 1562 1566 1570 1573 1577 1579 1582 1584 1586 1588 1590 1592 1594 1595 1596 1597 1598 1600 1600 1601 1601 1602 1602 1603 1603 1603 1604
1504 1503 1501 1501 1500 1500 1501 1501 1502 1505 1507 1507 1513 1518 1524 1531 1537 1541 1546 1549 1552 1557 1561 1565 1570 1573 1577 1579 1582 1584 1587 1589 1591 1593 1595 1596 1597 1598 1598 1599 1600 1600 1601 1602 1603 1603 1604 1605 1606
1499 1500 1499 1498 1498 1498 1498 1498 1502 1506 1507 1509 1513 1517 1524 1530 1534 1540 1545 1548 1551 1556 1561 1565 1569 1573 1576 1579 1582 1585 1588 1590 1592 1594 1596 1596 1597 1598 1598 1600 1600 1601 1602 1603 1604 1604 1605 1606 1607
1499 1500 1498 1495 1495 1494 1494 1499 1498 1503 1507 1509 1515 1519 1524 1530 1536 1538 1543 1547 1551 1556 1561 1564 1569 1572 1576 1579 1582 1585 1588 1590 1592 1594 1596 1596 1598 1598 1599 1600 1601 1601 1602 1603 1604 1605 1606 1608 1608
1497 1500 1499 1488 1490 1491 1493 1495 1500 1503 1506 1510 1515 1520 1525 1528 1533 1539 1543 1547 1551 1556 1559 1564 1568 1572 1575 1579 1582 1585 1588 1590 1593 1594 1596 1597 1598 1598 1599 1600 1601 1602 1602 1603 1604 1605 1607 1609 1609
1496 1492 1496 1490 1486 1486 1490 1493 1498 1503 1506 1510 1515 1519 1523 1528 1533 1537 1541 1546 1550 1555 1559 1563 1567 1570 1574 1578 1581 1585 1588 1590 1592 1594 1596 1597 1598 1599 1599 1600 1600 1601 1602 1603 1604 1606 1608 1609 1610
1492 1494 1491 1489 1484 1484 1487 1490 1497 1501 1505 1508 1513 1517 1522 1525 1528 1534 1539 1544 1548 1553 1557 1562 1565 1569 1573 1577 1580 1583 1586 1589 1591 1593 1595 1597 1598 1599 1600 1601 1599 1600 1602 1604 1605 1606 1608 1609 1609
1490 1491 1487 1484 1480 1483 1484 1485 1492 1500 1504 1507 1510 1513 1516 1521 1528 1532 1536 1541 1545 1550 1554 1558 1562 1567 1571 1574 1577 1581 1584 1588 1590 1593 1595 1597 1598 1599 1600 1601 1601 1601 1602 1603 1605 1606 1607 1608 1609
1491 1492 1490 1482 1482 1484 1480 1482 1486 1493 1495 1500 1504 1509 1513 1520 1523 1527 1532 1536 1540 1545 1550 1555 1559 1564 1568 1572 1576 1579 1583 1586 1589 1591 1594 1596 1597 1599 1600 1601 1600 1601 1601 1602 1604 1606 1607 1608 1609
1490 1491 1491 1487 1481 1478 1482 1485 1486 1489 1494 1499 1502 1506 1512 1514 1518 1522 1526 1530 1535 1539 1543 1549 1555 1560 1565 1570 1574 1577 1580 1584 1587 1589 1592 1595 1597 1598 1599 1600 1599 1600 1601 1602 1604 1605 1606 1608 1609
1489 1486 1490 1490 1492 1489 1475 1487 1479 1480 1486 1491 1494 1498 1502 1507 1513 1518 1522 1526 1529 1533 1540 1545 1551 1556 1561 1566 1570 1574 1577 1580 1584 1587 1591 1593 1595 1597 1598 1599 1599 1599 1600 1600 1602 1603 1605 1607 1609
1482 1483 1487 1489 1492 1489 1481 1485 1461 1471 1478 1480 1484 1490 1494 1499 1504 1509 1512 1516 1521 1529 1534 1540 1546 1552 1557 1561 1566 1570 1574 1578 1581 1585 1588 1590 1593 1595 1597 1598 1599 1599 1599 1599 1600 1602 1604 1605 1608
1478 1482 1483 1485 1488 1494 1480 1482 1465 1466 1467 1467 1474 1481 1486 1491 1496 1502 1506 1513 1518 1524 1529 1535 1539 1545 1551 1557 1562 1566 1570 1574 1577 1581 1584 1587 1589 1592 1594 1596 1597 1598 1598 1599 1599 1601 1603 1604 1606
1476 1479 1491 1500 1494 1483 1465 1478 1465 1452 1456 1456 1462 1469 1476 1482 1488 1492 1498 1504 1510 1515 1520 1526 1532 1538 1544 1550 1556 1561 1565 1570 1573 1577 1580 1583 1585 1587 1590 1593 1594 1596 1597 1597 1599 1600 1602 1603 1605
1471 1469 1473 1489 1480 1473 1464 1466 1452 1450 1452 1455 1458 1461 1467 1473 1478 1483 1487 1493 1499 1504 1509 1517 1524 1531 1538 1543 1549 1555 1560 1564 1569 1572 1575 1578 1580 1583 1586 1589 1591 1593 1595 1596 1598 1599 1600 1602 1603
1465 1466 1459 1469 1472 1468 1450 1453 1443 1445 1446 1448 1452 1457 1458 1462 1467 1471 1478 1483 1488 1495 1501 1506 1514 1523 1530 1536 1543 1548 1554 1558 1562 1566 1570 1574 1576 1580 1582 1585 1587 1589 1591 1594 1595 1597 1598 1600 1601
1458 1454 1472 1469 1481 1479 1455 1452 1443 1438 1442 1442 1446 1447 1448 1452 1458 1465 1471 1475 1479 1485 1492 1499 1507 1513 1521 1529 1535 1541 1547 1552 1557 1561 1565 1569 1572 1576 1579 1581 1583 1585 1588 1590 1592 1594 1596 1597 1598
1462 1458 1457 1453 1454 1460 1464 1448 1427 1432 1432 1433 1434 1438 1441 1444 1448 1453 1458 1463 1469 1477 1485 1491 1499 1506 1513 1521 1528 1534 1539 1544 1550 1555 1559 1563 1568 1572 1575 1577 1580 1582 1584 1586 1588 1590 1592 1593 1595
1471 1461 1453 1455 1457 1451 1447 1440 1425 1427 1430 1433 1433 1434 1436 1438 1439 1442 1449 1457 1465 1469 1475 1481 1489 1497 1505 1513 1520 1526 1532 1538 1543 1547 1552 1557 1561 1566 1570 1573 1575 1577 1580 1582 1583 1585 1587 1589 1591